Location: Deneb Observatory
(47.2267°N, 100.4953°W)
Time: 01:23:56
(UTC-05:00)

Amateur Radio Satellites - All Passes

Search period start: 22 September 2017 00:53
Search period end: 23 September 2017 00:53
Location: Deneb Observatory, 47.2267°N, 100.4953°W

Satellite Date Start Highest point End Downlink Frequencies (MHz)
Time Altitude Azimuth
AIST 2D 22 Sep 00:54:13 00:57:44 58° 101° (E) 01:01:11 435.315
SPROUT 22 Sep 00:57:51 01:02:02 63° 73° (ENE) 01:06:15 437.525
QB50P2 22 Sep 01:00:26 01:04:12 29° 95° (E) 01:07:58 145.880/145.840
PRISM 22 Sep 01:05:32 01:08:59 27° 294° (WNW) 01:12:26 437.425
UNISAT 6 22 Sep 01:06:11 01:09:31 20° 298° (WNW) 01:12:52 437.425
LO-87 22 Sep 01:07:23 01:09:27 15° 269° (W) 01:11:32 145.935 - 145.965
50 SAT 22 Sep 01:22:19 01:25:05 25° 68° (ENE) 01:27:51 437.505
TIGRISAT 22 Sep 01:31:20 01:33:35 13° 302° (WNW) 01:35:50 435.000
ISS 22 Sep 01:32:21 01:35:26 37° 356° (N) 01:38:33 437.550
NANOSAT C BR1 22 Sep 01:37:43 01:41:56 58° 101° (E) 01:46:08 145.865
ESTCUBE 1 22 Sep 01:44:01 01:46:30 14° 271° (W) 01:48:59 437.505/2401.250
UKube-1 22 Sep 01:55:48 01:59:46 37° 68° (ENE) 02:03:44 .
DX 1 22 Sep 01:58:13 02:02:28 58° 71° (ENE) 02:06:45 434.975-435.025
Tancredo 1 22 Sep 01:59:39 02:02:19 55° 19° (NNE) 02:05:00 437.200
YUBILEINY 22 Sep 01:59:42 02:07:38 41° 274° (W) 02:15:35 435.215
DUCHIFAT 1 22 Sep 02:07:18 02:11:35 78° 285° (WNW) 02:15:50 145.980
Oscar 19 22 Sep 02:13:51 02:17:34 19° 91° (E) 02:21:14 437.125/150
nSIGHT-1 22 Sep 02:15:56 02:19:00 37° 6° (N) 02:22:05 .
POLYITAN 1 22 Sep 02:18:08 02:22:17 48° 289° (WNW) 02:26:25 437.675
VELOX 1 22 Sep 02:20:04 02:23:46 26° 265° (W) 02:27:28 145.980
EO-79 22 Sep 02:23:04 02:27:08 43° 290° (WNW) 02:31:11 145.935-145.965
AIST 2D 22 Sep 02:29:04 02:30:27 12° 298° (WNW) 02:31:48 435.315
SPROUT 22 Sep 02:36:07 02:38:21 14° 271° (W) 02:40:36 437.525
QB50P2 22 Sep 02:36:13 02:39:57 30° 293° (WNW) 02:43:42 145.880/145.840
PCSat 22 Sep 02:36:32 02:40:19 20° 254° (WSW) 02:44:05 145.827
O/OREOS (USA 219) 22 Sep 02:43:39 02:45:43 13° 98° (E) 02:47:47 437.305
MOZHAYETS 4 22 Sep 02:50:27 02:53:42 19° 61° (ENE) 02:56:58
BUGSAT 1 22 Sep 02:50:27 02:54:40 85° 105° (ESE) 02:58:53 437.445
50 SAT 22 Sep 02:55:00 02:57:34 21° 265° (W) 03:00:08 437.505
M-CUBED/EXP-1 PRIME 22 Sep 02:55:04 02:58:28 75° 289° (WNW) 03:01:42 437.505
ITUPSAT 1 22 Sep 03:00:37 03:04:30 25° 63° (ENE) 03:08:24 437.325
ISS 22 Sep 03:09:05 03:12:19 51° 16° (NNE) 03:15:33 437.550
NANOSAT C BR1 22 Sep 03:14:29 03:17:13 17° 299° (WNW) 03:19:56 145.865
BEESAT 3 22 Sep 03:21:35 03:22:08 10° 23° (NNE) 03:22:42 437.485
Gurwin Techsat 1B 22 Sep 03:21:40 03:26:53 52° 100° (E) 03:32:03 435.225
UKube-1 22 Sep 03:32:22 03:35:52 24° 266° (W) 03:39:24 .
Tancredo 1 22 Sep 03:34:26 03:36:43 24° 217° (SW) 03:39:00 437.200
DX 1 22 Sep 03:36:23 03:39:01 16° 269° (W) 03:41:40 434.975-435.025
BEESAT 22 Sep 03:37:41 03:42:18 54° 70° (ENE) 03:46:58 436.000
DUCHIFAT 1 22 Sep 03:46:03 03:46:29 10° 304° (WNW) 03:46:56 145.980
AO-7 22 Sep 03:51:49 03:57:34 20° 89° (E) 04:03:17 .
Oscar 19 22 Sep 03:52:11 03:57:19 62° 289° (WNW) 04:02:24 437.125/150
nSIGHT-1 22 Sep 03:52:18 03:55:35 88° 206° (SSW) 03:58:50 .
AO-85 22 Sep 04:12:37 04:14:36 13° 27° (NNE) 04:16:40 145.980
RS-15 22 Sep 04:18:33 04:21:02 11° 89° (E) 04:23:30 29.354- 29.394
O/OREOS (USA 219) 22 Sep 04:19:57 04:24:28 76° 296° (WNW) 04:29:03 437.305
MOZHAYETS 4 22 Sep 04:25:53 04:30:26 58° 259° (W) 04:35:02
BUGSAT 1 22 Sep 04:27:47 04:29:23 12° 302° (WNW) 04:31:00 437.445
ITUPSAT 1 22 Sep 04:37:32 04:42:05 44° 261° (W) 04:46:42 437.325
ISS 22 Sep 04:45:39 04:48:45 38° 215° (SW) 04:51:51 437.550
CUBESAT XI-V 22 Sep 04:47:06 04:51:42 55° 71° (ENE) 04:56:18 437.345
ITAMSAT 1 22 Sep 04:52:57 04:57:47 37° 97° (E) 05:02:35 435.822/435.867
BEESAT 3 22 Sep 04:57:04 05:00:49 37° 44° (NE) 05:04:31 437.485
KKS-1 22 Sep 05:00:01 05:03:51 30° 66° (ENE) 05:07:42 437.445
BEESAT 2 22 Sep 05:00:17 05:03:16 19° 35° (NE) 05:06:14 435.950
Gurwin Techsat 1B 22 Sep 05:02:12 05:06:32 26° 298° (WNW) 05:10:51 435.225
BEESAT 22 Sep 05:16:55 05:20:24 20° 268° (W) 05:23:54 436.000
nSIGHT-1 22 Sep 05:29:23 05:31:31 16° 223° (SW) 05:33:39 .
STARS 22 Sep 05:29:50 05:33:25 26° 64° (ENE) 05:37:01 437.465
Oscar 19 22 Sep 05:34:21 05:35:37 11° 308° (NW) 05:36:53 437.125/150
AO-7 22 Sep 05:43:08 05:51:30 86° 109° (ESE) 05:59:49 .
DOVE 4 22 Sep 05:50:09 05:52:04 13° 89° (E) 05:53:59 437.250
AO-85 22 Sep 05:51:43 05:55:57 49° 48° (NE) 06:00:29 145.980
O/OREOS (USA 219) 22 Sep 06:02:35 06:04:43 13° 317° (NW) 06:06:53 437.305
RS-15 22 Sep 06:18:41 06:30:17 52° 112° (ESE) 06:41:54 29.354- 29.394
CUBESAT XI-V 22 Sep 06:26:04 06:29:25 19° 269° (W) 06:32:45 437.345
ITAMSAT 1 22 Sep 06:32:32 06:37:11 34° 296° (WNW) 06:41:49 435.822/435.867
BEESAT 3 22 Sep 06:34:52 06:38:16 27° 244° (WSW) 06:41:35 437.485
KKS-1 22 Sep 06:36:23 06:40:21 32° 264° (W) 06:44:19 437.445
BEESAT 2 22 Sep 06:37:25 06:41:29 75° 235° (SW) 06:45:29 435.950
XW-2D 22 Sep 06:44:29 06:46:15 13° 89° (E) 06:47:58 145.860 - 145.880
XW-2B 22 Sep 06:56:10 06:58:40 16° 91° (E) 07:01:07 145.730 - 145.750
XW-2F 22 Sep 06:57:38 07:00:05 16° 91° (E) 07:02:31 145.980 - 146.000
STARS 22 Sep 07:05:35 07:09:36 36° 262° (W) 07:13:40 437.465
STRAND 1 22 Sep 07:11:54 07:16:12 28° 63° (ENE) 07:20:30 437.568
XW-2C 22 Sep 07:16:46 07:20:06 28° 95° (E) 07:23:25 145.795 - 145.815
DOVE 4 22 Sep 07:26:01 07:30:12 67° 286° (WNW) 07:34:30 437.250
NUDT-PHONESAT 22 Sep 07:26:14 07:29:24 25° 95° (E) 07:32:32 437.300
LilacSat-2 22 Sep 07:26:45 07:30:23 38° 98° (E) 07:33:58 437.200
AO-85 22 Sep 07:32:31 07:36:09 25° 244° (WSW) 07:40:00 145.980
AO-7 22 Sep 07:36:47 07:43:24 28° 311° (NW) 07:50:01 .
KAITUO 1B 22 Sep 07:51:35 07:55:17 52° 100° (E) 07:58:55 145.475/437.950
CUTE-I 22 Sep 08:07:39 08:13:00 72° 104° (ESE) 08:18:19 437.470
XW-2D 22 Sep 08:17:00 08:20:47 56° 286° (WNW) 08:24:30 145.860 - 145.880
SEEDS 22 Sep 08:23:35 08:26:48 21° 92° (E) 08:29:58 437.485
FO-29 22 Sep 08:24:18 08:27:55 18° 59° (ENE) 08:31:26 435.910
XW-2B 22 Sep 08:29:25 08:33:03 42° 289° (WNW) 08:36:39 145.730 - 145.750
RS-15 22 Sep 08:30:27 08:42:41 63° 317° (NW) 08:54:53 29.354- 29.394
XW-2F 22 Sep 08:30:48 08:34:25 43° 289° (WNW) 08:38:00 145.980 - 146.000
HO-68 22 Sep 08:46:28 08:53:32 56° 101° (ESE) 09:00:33 435.675
CUTE 1.7 + AOD 2 22 Sep 08:47:39 08:51:52 58° 100° (E) 08:56:02 437.475
STRAND 1 22 Sep 08:50:20 08:55:11 44° 261° (W) 09:00:04 437.568
XW-2C 22 Sep 08:51:01 08:54:12 25° 293° (WNW) 08:57:22 145.795 - 145.815
AAUSAT CUBESAT 2 22 Sep 08:51:33 08:54:31 19° 92° (E) 08:57:27 437.432
CUBEBUG 2 22 Sep 08:59:18 09:03:50 46° 98° (E) 09:08:24 437.445
NUDT-PHONESAT 22 Sep 09:00:04 09:03:14 26° 293° (WNW) 09:06:23 437.300
LilacSat-2 22 Sep 09:01:37 09:04:25 19° 295° (WNW) 09:07:11 437.200
UWE-3 22 Sep 09:09:53 09:14:11 36° 96° (E) 09:18:29 435.000/436.395/437.385
TIGRISAT 22 Sep 09:20:14 09:22:37 15° 59° (ENE) 09:25:01 435.000
KAITUO 1B 22 Sep 09:26:44 09:28:52 15° 298° (WNW) 09:30:59 145.475/437.950
XW-2A 22 Sep 09:39:33 09:43:00 77° 284° (WNW) 09:46:25 145.665 - 145.685
CUTE-I 22 Sep 09:48:45 09:52:30 20° 302° (WNW) 09:56:16 437.470
SEEDS 22 Sep 09:58:42 10:02:38 40° 290° (WNW) 10:06:32 437.485
AO-73 22 Sep 09:59:17 10:03:48 56° 100° (E) 10:08:17 145.935
Oscar 11 22 Sep 10:00:30 10:04:36 40° 97° (E) 10:08:40 .
ZACube-1 22 Sep 10:01:05 10:05:41 65° 101° (E) 10:10:14 437.345
FO-29 22 Sep 10:06:51 10:12:34 75° 256° (WSW) 10:17:52 435.910
PRISM 22 Sep 10:22:06 10:25:46 32° 68° (ENE) 10:29:26 437.425
CUTE 1.7 + AOD 2 22 Sep 10:24:36 10:27:15 16° 299° (WNW) 10:29:54 437.475
Max Valier Satellite 22 Sep 10:25:23 10:26:55 12° 89° (E) 10:28:27 145.860
AAUSAT CUBESAT 2 22 Sep 10:26:16 10:30:10 42° 289° (WNW) 10:34:03 437.432
UNISAT 6 22 Sep 10:30:12 10:34:31 70° 74° (ENE) 10:38:58 437.425
HO-68 22 Sep 10:34:37 10:40:59 36° 301° (WNW) 10:47:21 435.675
DELFI C3 22 Sep 10:34:50 10:37:52 21° 93° (E) 10:40:53 145.870
CUBEBUG 2 22 Sep 10:36:28 10:40:11 24° 296° (WNW) 10:43:55 437.445
UWE-3 22 Sep 10:46:30 10:50:31 29° 294° (WNW) 10:54:32 435.000/436.395/437.385
RS-15 22 Sep 10:47:09 10:58:11 35° 349° (NNW) 11:08:58 29.354- 29.394
TIGRISAT 22 Sep 10:54:23 10:58:42 74° 258° (WSW) 11:03:10 435.000
EO-88 22 Sep 11:28:01 11:31:34 46° 99° (E) 11:35:05 145.990 - 145.960
DUCHIFAT 1 22 Sep 11:28:32 11:30:40 14° 59° (ENE) 11:32:46 145.980
AIST 2D 22 Sep 11:31:11 11:34:23 33° 71° (ENE) 11:37:38 435.315
AO-73 22 Sep 11:36:22 11:39:38 20° 298° (WNW) 11:42:53 145.935
Oscar 11 22 Sep 11:37:03 11:40:32 23° 295° (WNW) 11:43:58 .
ZACube-1 22 Sep 11:38:28 11:41:28 17° 299° (WNW) 11:44:27 437.345
POLYITAN 1 22 Sep 11:38:42 11:41:52 21° 63° (ENE) 11:45:03 437.675
EO-79 22 Sep 11:43:15 11:46:34 23° 64° (ENE) 11:49:54 145.935-145.965
QB50P2 22 Sep 11:55:46 11:59:31 32° 68° (ENE) 12:03:19 145.880/145.840
ESTCUBE 1 22 Sep 11:56:12 11:57:41 11° 87° (E) 11:59:11 437.505/2401.250
Max Valier Satellite 22 Sep 11:57:24 12:01:06 57° 287° (WNW) 12:04:47 145.860
PRISM 22 Sep 11:57:40 12:01:04 25° 265° (W) 12:04:28 437.425
DELFI C3 22 Sep 12:09:09 12:12:43 34° 291° (WNW) 12:16:16 145.870
M-CUBED/EXP-1 PRIME 22 Sep 12:09:23 12:12:49 25° 61° (ENE) 12:16:05 437.505
UNISAT 6 22 Sep 12:09:38 12:11:46 13° 272° (W) 12:13:55 437.425
BUGSAT 1 22 Sep 12:11:23 12:12:06 10° 57° (ENE) 12:12:49 437.445
LO-87 22 Sep 12:29:21 12:32:38 32° 97° (E) 12:35:55 145.935 - 145.965
NANOSAT C BR1 22 Sep 12:32:19 12:36:27 63° 73° (ENE) 12:40:38 145.865
O/OREOS (USA 219) 22 Sep 12:47:41 12:52:07 44° 59° (ENE) 12:56:31 437.305
DUCHIFAT 1 22 Sep 13:01:35 13:05:46 73° 258° (WSW) 13:09:59 145.980
EO-88 22 Sep 13:02:39 13:04:52 15° 297° (WNW) 13:07:05 145.990 - 145.960
RS-15 22 Sep 13:03:26 13:14:48 41° 23° (NNE) 13:25:39 29.354- 29.394
AIST 2D 22 Sep 13:05:10 13:07:41 18° 268° (W) 13:10:13 435.315
YUBILEINY 22 Sep 13:07:18 13:15:35 52° 89° (E) 13:23:54 435.215
AO-7 22 Sep 13:07:43 13:10:45 12° 32° (NNE) 13:13:48 .
Gurwin Techsat 1B 22 Sep 13:08:15 13:11:51 19° 58° (ENE) 13:15:28 435.225
POLYITAN 1 22 Sep 13:13:22 13:17:22 43° 262° (W) 13:21:26 437.675
EO-79 22 Sep 13:18:12 13:22:07 38° 262° (W) 13:26:06 145.935-145.965
ESTCUBE 1 22 Sep 13:30:35 13:35:07 84° 284° (WNW) 13:39:35 437.505/2401.250
QB50P2 22 Sep 13:31:47 13:35:20 26° 265° (W) 13:38:56 145.880/145.840
Oscar 19 22 Sep 13:33:15 13:38:03 39° 67° (ENE) 13:42:53 437.125/150
BUGSAT 1 22 Sep 13:42:45 13:46:46 88° 75° (ENE) 13:50:51 437.445
M-CUBED/EXP-1 PRIME 22 Sep 13:43:06 13:47:06 37° 256° (WSW) 13:50:51 437.505
NO-84 22 Sep 13:49:37 13:51:55 15° 130° (SE) 13:54:08 435.350 FM
LO-87 22 Sep 14:03:12 14:05:52 20° 294° (WNW) 14:08:31 145.935 - 145.965
VELOX 1 22 Sep 14:05:52 14:10:05 45° 99° (E) 14:14:17 145.980
NANOSAT C BR1 22 Sep 14:10:26 14:12:35 14° 271° (W) 14:14:46 145.865
50 SAT 22 Sep 14:12:09 14:14:09 15° 93° (E) 14:16:09 437.505
SPROUT 22 Sep 14:15:51 14:20:10 80° 103° (ESE) 14:24:27 437.525
O/OREOS (USA 219) 22 Sep 14:27:37 14:31:15 23° 257° (WSW) 14:34:53 437.305
ITAMSAT 1 22 Sep 14:37:57 14:40:24 14° 54° (NE) 14:42:52 435.822/435.867
SO-50 22 Sep 14:44:25 14:47:38 20° 113° (ESE) 14:50:52 436.795
Gurwin Techsat 1B 22 Sep 14:45:54 14:51:13 76° 256° (WSW) 14:56:34 435.225
AO-7 22 Sep 14:53:44 15:01:18 41° 56° (NE) 15:08:50 .
YUBILEINY 22 Sep 15:04:33 15:12:37 41° 291° (WNW) 15:20:45 435.215
ESTCUBE 1 22 Sep 15:09:34 15:11:10 12° 304° (WNW) 15:12:46 437.505/2401.250
Oscar 19 22 Sep 15:12:50 15:17:26 31° 265° (W) 15:22:05 437.125/150
UKube-1 22 Sep 15:15:06 15:19:13 42° 99° (E) 15:23:18 .
RS-15 22 Sep 15:16:58 15:29:09 85° 53° (NE) 15:40:38 29.354- 29.394
DX 1 22 Sep 15:19:04 15:23:24 71° 103° (ESE) 15:27:43 434.975-435.025
NO-84 22 Sep 15:25:14 15:28:58 89° 323° (NW) 15:32:24 435.350 FM
PCSat 22 Sep 15:37:03 15:41:53 34° 112° (ESE) 15:46:45 145.827
BEESAT 22 Sep 15:37:30 15:38:15 10° 86° (E) 15:39:00 436.000
VELOX 1 22 Sep 15:42:54 15:46:16 22° 297° (WNW) 15:49:36 145.980
50 SAT 22 Sep 15:43:45 15:46:47 34° 290° (WNW) 15:49:49 437.505
SPROUT 22 Sep 15:53:26 15:55:28 13° 301° (WNW) 15:57:28 437.525
ITAMSAT 1 22 Sep 16:13:53 16:19:02 78° 73° (ENE) 16:24:14 435.822/435.867
MOZHAYETS 4 22 Sep 16:17:57 16:21:54 26° 94° (E) 16:25:47
SO-50 22 Sep 16:23:14 16:27:41 60° 311° (NW) 16:32:10 436.795
Gurwin Techsat 1B 22 Sep 16:30:47 16:32:03 11° 275° (W) 16:33:21 435.225
ITUPSAT 1 22 Sep 16:34:35 16:39:03 36° 97° (E) 16:43:28 437.325
CUBESAT XI-V 22 Sep 16:43:09 16:44:08 11° 86° (E) 16:45:06 437.345
AO-7 22 Sep 16:45:38 16:53:48 57° 257° (WSW) 17:02:00 .
UKube-1 22 Sep 16:51:38 16:55:00 22° 297° (WNW) 16:58:20 .
DX 1 22 Sep 16:56:37 16:59:03 15° 301° (WNW) 17:01:29 434.975-435.025
DOVE 4 22 Sep 16:58:15 17:01:23 20° 64° (ENE) 17:04:28 437.250
NO-84 22 Sep 17:03:39 17:06:40 26° 344° (NNW) 17:09:30 435.350 FM
BEESAT 22 Sep 17:11:57 17:16:47 82° 104° (ESE) 17:21:34 436.000
PCSat 22 Sep 17:19:59 17:25:10 45° 312° (NW) 17:30:24 145.827
XW-2D 22 Sep 17:29:36 17:30:46 11° 60° (ENE) 17:31:56 145.860 - 145.880
RS-15 22 Sep 17:30:31 17:40:12 31° 257° (WSW) 17:49:30 29.354- 29.394
HO-68 22 Sep 17:35:14 17:38:43 14° 44° (NE) 17:42:12 435.675
XW-2B 22 Sep 17:40:54 17:42:58 14° 62° (ENE) 17:45:02 145.730 - 145.750
XW-2F 22 Sep 17:41:59 17:43:59 14° 62° (ENE) 17:45:59 145.980 - 146.000
CUTE-I 22 Sep 17:54:07 17:58:22 25° 61° (ENE) 18:02:38 437.470
MOZHAYETS 4 22 Sep 17:54:50 17:59:09 38° 292° (WNW) 18:03:25
ITAMSAT 1 22 Sep 17:56:07 17:59:07 15° 271° (W) 18:02:07 435.822/435.867
XW-2C 22 Sep 18:01:02 18:04:04 23° 66° (ENE) 18:07:07 145.795 - 145.815
SO-50 22 Sep 18:06:19 18:09:03 16° 333° (NNW) 18:11:49 436.795
NUDT-PHONESAT 22 Sep 18:08:30 18:11:15 20° 65° (ENE) 18:14:01 437.300
LilacSat-2 22 Sep 18:11:23 18:14:48 30° 69° (ENE) 18:18:16 437.200
ITUPSAT 1 22 Sep 18:12:34 18:16:47 31° 295° (WNW) 18:20:58 437.325
CUBESAT XI-V 22 Sep 18:17:32 18:22:13 88° 106° (ESE) 18:26:49 437.345
KKS-1 22 Sep 18:23:31 18:27:39 36° 98° (E) 18:31:45 437.445
KAITUO 1B 22 Sep 18:34:07 18:37:39 37° 70° (ENE) 18:41:11 145.475/437.950
DOVE 4 22 Sep 18:34:34 18:38:50 47° 261° (W) 18:42:57 437.250
NO-84 22 Sep 18:42:14 18:44:49 21° 6° (N) 18:47:15 435.350 FM
AO-7 22 Sep 18:46:26 18:48:26 11° 278° (W) 18:50:26 .
BEESAT 22 Sep 18:51:11 18:53:56 15° 303° (WNW) 18:56:39 436.000
STARS 22 Sep 18:51:23 18:55:17 30° 96° (E) 18:59:10 437.465
XW-2D 22 Sep 19:00:31 19:04:21 78° 258° (WSW) 19:08:14 145.860 - 145.880
PCSat 22 Sep 19:07:11 19:10:01 14° 335° (NNW) 19:12:51 145.827
XW-2B 22 Sep 19:12:54 19:16:42 58° 260° (W) 19:20:31 145.730 - 145.750
XW-2F 22 Sep 19:13:51 19:17:38 59° 259° (W) 19:21:27 145.980 - 146.000
HO-68 22 Sep 19:18:01 19:24:58 56° 65° (ENE) 19:31:56 435.675
SEEDS 22 Sep 19:18:04 19:21:23 23° 65° (ENE) 19:24:43 437.485
CUTE-I 22 Sep 19:32:54 19:38:06 54° 260° (W) 19:43:19 437.470
XW-2C 22 Sep 19:34:36 19:38:05 32° 263° (W) 19:41:37 145.795 - 145.815
NUDT-PHONESAT 22 Sep 19:41:24 19:44:53 36° 263° (W) 19:48:25 437.300
CUTE 1.7 + AOD 2 22 Sep 19:42:45 19:46:59 60° 73° (ENE) 19:51:14 437.475
AAUSAT CUBESAT 2 22 Sep 19:44:34 19:47:37 20° 64° (ENE) 19:50:39 437.432
LilacSat-2 22 Sep 19:45:55 19:49:06 24° 266° (W) 19:52:18 437.200
CUBESAT XI-V 22 Sep 19:56:40 19:58:54 13° 303° (WNW) 20:01:06 437.345
CUBEBUG 2 22 Sep 20:00:15 20:04:23 52° 72° (ENE) 20:08:40 437.445
KKS-1 22 Sep 20:00:21 20:04:03 26° 295° (WNW) 20:07:46 437.445
KAITUO 1B 22 Sep 20:09:03 20:11:46 19° 268° (W) 20:14:30 145.475/437.950
UWE-3 22 Sep 20:09:40 20:13:41 39° 69° (ENE) 20:17:50 435.000/436.395/437.385
XW-2A 22 Sep 20:13:09 20:16:29 54° 74° (ENE) 20:19:52 145.665 - 145.685
NO-84 22 Sep 20:19:40 20:22:44 50° 28° (NNE) 20:25:35 435.350 FM
BEESAT 3 22 Sep 20:27:03 20:30:08 21° 114° (ESE) 20:33:14 437.485
STARS 22 Sep 20:27:43 20:31:35 31° 294° (WNW) 20:35:28 437.465
SEEDS 22 Sep 20:52:52 20:56:52 39° 263° (W) 21:00:53 437.485
STRAND 1 22 Sep 20:57:13 21:02:12 50° 99° (E) 21:07:12 437.568
AO-73 22 Sep 20:57:18 21:01:34 60° 73° (ENE) 21:05:59 145.935
Oscar 11 22 Sep 20:57:52 21:02:00 44° 70° (ENE) 21:06:10 .
ZACube-1 22 Sep 20:59:26 21:03:45 71° 74° (ENE) 21:08:12 437.345
HO-68 22 Sep 21:06:42 21:13:00 33° 265° (W) 21:19:23 435.675
AAUSAT CUBESAT 2 22 Sep 21:18:47 21:22:47 44° 262° (W) 21:26:47 437.432
CUTE 1.7 + AOD 2 22 Sep 21:20:45 21:23:12 15° 271° (W) 21:25:40 437.475
DELFI C3 22 Sep 21:23:12 21:26:05 20° 65° (ENE) 21:28:57 145.870
ISS 22 Sep 21:29:08 21:30:25 12° 134° (SE) 21:31:43 437.550
Tancredo 1 22 Sep 21:29:29 21:32:08 52° 149° (SSE) 21:34:47 437.200
SO-50 22 Sep 21:31:42 21:34:02 14° 24° (NNE) 21:36:22 436.795
CUBEBUG 2 22 Sep 21:38:33 21:41:22 17° 270° (W) 21:44:15 437.445
UWE-3 22 Sep 21:46:51 21:50:17 23° 268° (W) 21:53:50 435.000/436.395/437.385
XW-2A 22 Sep 21:48:41 21:49:32 11° 271° (W) 21:50:23 145.665 - 145.685
AO-85 22 Sep 21:49:26 21:53:09 47° 121° (ESE) 21:56:58 145.980
NO-84 22 Sep 21:57:34 21:59:49 20° 227° (SW) 22:01:59 435.350 FM
BEESAT 3 22 Sep 22:03:31 22:07:25 47° 313° (NW) 22:11:21 437.485
BEESAT 2 22 Sep 22:08:09 22:12:09 71° 124° (SE) 22:16:13 435.950
EO-88 22 Sep 22:08:26 22:11:43 31° 69° (ENE) 22:15:01 145.990 - 145.960
nSIGHT-1 22 Sep 22:08:48 22:11:35 27° 142° (SE) 22:14:23 .
UNISAT 6 22 Sep 22:20:10 22:22:17 13° 88° (E) 22:24:25 437.425
Oscar 11 22 Sep 22:35:06 22:38:21 20° 268° (W) 22:41:38 .
AO-73 22 Sep 22:35:38 22:38:14 15° 271° (W) 22:40:53 145.935
STRAND 1 22 Sep 22:36:56 22:41:07 26° 298° (WNW) 22:45:18 437.568
ZACube-1 22 Sep 22:38:28 22:40:34 13° 273° (W) 22:42:41 437.345
Max Valier Satellite 22 Sep 22:38:33 22:42:16 85° 257° (WSW) 22:46:02 145.860
PCSat 22 Sep 22:38:36 22:41:57 16° 29° (NNE) 22:45:17 145.827
TIGRISAT 22 Sep 22:43:07 22:46:33 20° 91° (E) 22:50:00 435.000
FO-29 22 Sep 22:56:12 23:01:36 71° 103° (ESE) 23:07:33 435.910
DELFI C3 22 Sep 22:56:51 23:00:35 40° 262° (W) 23:04:20 145.870
ESTCUBE 1 22 Sep 22:57:59 23:00:54 17° 60° (ENE) 23:03:51 437.505/2401.250
ISS 22 Sep 23:03:07 23:06:22 67° 151° (SSE) 23:09:39 437.550
Tancredo 1 22 Sep 23:04:11 23:06:44 36° 348° (NNW) 23:09:18 437.200
LO-87 22 Sep 23:08:32 23:11:17 22° 67° (ENE) 23:14:05 145.935 - 145.965
SO-50 22 Sep 23:11:10 23:15:36 46° 46° (NE) 23:20:03 436.795
YUBILEINY 22 Sep 23:13:20 23:20:51 31° 64° (ENE) 23:28:21 435.215
AO-85 22 Sep 23:30:32 23:33:45 24° 322° (NW) 23:37:04 145.980
PRISM 22 Sep 23:34:58 23:38:39 32° 97° (E) 23:42:20 437.425
SPROUT 22 Sep 23:39:27 23:40:44 11° 57° (ENE) 23:42:00 437.525
EO-88 22 Sep 23:42:38 23:45:26 20° 267° (W) 23:48:15 145.990 - 145.960
BEESAT 3 22 Sep 23:44:23 23:45:57 12° 334° (NNW) 23:47:30 437.485
nSIGHT-1 22 Sep 23:44:31 23:47:44 63° 340° (NNW) 23:50:58 .
BEESAT 2 22 Sep 23:47:18 23:50:20 20° 324° (NW) 23:53:23 435.950
UNISAT 6 22 Sep 23:54:52 23:59:33 81° 285° (WNW) 00:04:16 437.425
TIGRISAT 23 Sep 00:18:59 00:23:31 52° 289° (WNW) 00:28:04 435.000
PCSat 23 Sep 00:21:11 00:26:33 56° 51° (NE) 00:31:53 145.827
AIST 2D 23 Sep 00:26:02 00:29:03 26° 95° (E) 00:32:03 435.315
ESTCUBE 1 23 Sep 00:32:44 00:37:14 64° 258° (WSW) 00:41:46 437.505/2401.250
Tancredo 1 23 Sep 00:39:09 00:41:39 32° 8° (N) 00:44:09 437.200
ISS 23 Sep 00:39:51 00:43:00 41° 350° (N) 00:46:10 437.550
LO-87 23 Sep 00:41:31 00:44:35 28° 264° (W) 00:47:42 145.935 - 145.965
FO-29 23 Sep 00:42:30 00:46:18 20° 301° (WNW) 00:50:18 435.910
DUCHIFAT 1 23 Sep 00:43:34 00:45:57 15° 90° (E) 00:48:20 145.980
DX 1 23 Sep 00:44:21 00:46:01 12° 57° (ENE) 00:47:40 434.975-435.025
